Pecs, Hungary

6:11 PM CET on February 25, 2017 (GMT +0100)
Pecs

Weather History for LHPP - March, 2013

Change the Weather History Date:

Sunday, March 17, 2013

  Actual Average Record
Temperature  
Mean Temperature 28 °F -  
Max Temperature 37 °F 57 °F - ()
Min Temperature 20 °F 40 °F - ()
Degree Days  
Heating Degree Days 36    
Moisture  
Dew Point 20 °F    
Average Humidity 66    
Maximum Humidity 86    
Minimum Humidity 35    
Precipitation  
Precipitation 0.00 in 0.06 in - ()
Sea Level Pressure  
Sea Level Pressure 30.09 in    
Wind  
Wind Speed 7 mph ()    
Max Wind Speed 17 mph    
Max Gust Speed -    
Visibility 19.0 miles    
Events      
T = Trace of Precipitation, MM = Missing Value Source: Averaged Metar Reports

Daily Weather History Graph

Daily Weather History Graph

Search for Another Location

Airport or City:

Trip Planner

Search our weather history database for the weather conditions in past years. The results will help you decide how hot, cold, wet, or windy it might be!

Date:

Astronomy

Mar. 17, 2013 Rise Set
Actual Time 5:55 AM CET 5:55 PM CET
Civil Twilight 5:26 AM CET 6:25 PM CET
Nautical Twilight 4:51 AM CET 7:00 PM CET
Astronomical Twilight 4:15 AM CET 7:36 PM CET
Moon 8:38 AM CET (3/17) 11:59 PM CET (3/17)
Length of Visible Light 12h 59m
Length of Day
11h 59m
Waxing Crescent, 29% of the Moon is Illuminated
Mar 17
Waxing Crescent
Mar 19
First Quarter
Mar 27
Full
Apr 3
Last Quarter
Apr 10
New

Hourly Weather History & Observations

Time (CET) Temp. Windchill Dew Point Humidity Pressure Visibility Wind Dir Wind Speed Gust Speed Precip Events Conditions
12:45 AM 24.8 °F - 17.6 °F 74% 30.15 in - East 2.3 mph - N/A   Clear
1:00 AM 24 °F - 17 °F 64% 30.21 in 25 mi East 2.2 mph - -   Partly Cloudy
1:45 AM 24.8 °F 20.5 °F 17.6 °F 74% 30.15 in - East 3.5 mph - N/A   Clear
2:45 AM 23.0 °F 18.4 °F 17.6 °F 80% 30.12 in - East 3.5 mph - N/A   Clear
3:45 AM 21.2 °F 16.4 °F 15.8 °F 80% 30.12 in - ENE 3.5 mph - N/A   Clear
4:45 AM 21.2 °F 14.9 °F 15.8 °F 80% 30.12 in - East 4.6 mph - N/A   Clear
5:15 AM 21.2 °F 14.9 °F 17.6 °F 86% 30.12 in - East 4.6 mph - N/A   Clear
5:45 AM 21.2 °F - 15.8 °F 80% 30.12 in - East 2.3 mph - N/A   Clear
6:00 AM - - - N/A% - - Variable 3.5 mph - N/A   Clear
6:15 AM 21.2 °F - 17.6 °F 86% 30.12 in - East 2.3 mph - N/A   Clear
6:45 AM 23.0 °F 18.4 °F 17.6 °F 80% 30.12 in - East 3.5 mph - N/A   Clear
6:51 AM - - - N/A% - - Variable 3.5 mph - N/A   Clear
7:00 AM 22 °F - 17 °F 72% 30.18 in 19 mi East 2.2 mph - -   Partly Cloudy
7:15 AM 24.8 °F 20.5 °F 19.4 °F 80% 30.12 in - ESE 3.5 mph - N/A   Clear
7:45 AM 26.6 °F 21.2 °F 19.4 °F 74% 30.12 in - ESE 4.6 mph - N/A   Clear
8:15 AM 28.4 °F 22.2 °F 21.2 °F 74% 30.12 in - SE 5.8 mph - N/A   Clear
8:45 AM 30.2 °F 21.9 °F 19.4 °F 64% 30.12 in - SE 9.2 mph - N/A   Clear
9:00 AM - - - N/A% - - SE 15.0 mph - N/A   Dust Whirls
9:15 AM 32.0 °F 24.2 °F 19.4 °F 60% 30.12 in - SE 9.2 mph - N/A   Clear
9:45 AM 32.0 °F 23.0 °F 19.4 °F 60% 30.12 in - SE 11.5 mph - N/A   Clear
10:15 AM 33.8 °F 24.3 °F 19.4 °F 56% 30.12 in - SSE 13.8 mph - N/A   Clear
10:45 AM 35.6 °F 26.6 °F 19.4 °F 52% 30.12 in - SE 13.8 mph - N/A   Clear
11:15 AM 35.6 °F 26.6 °F 19.4 °F 52% 30.12 in - SE 13.8 mph - N/A   Clear
11:45 AM 35.6 °F 26.2 °F 17.6 °F 48% 30.12 in - SSE 15.0 mph - N/A   Clear
12:00 PM - - - N/A% - - SE 15.0 mph - N/A   Dust Whirls
12:15 PM 35.6 °F 26.6 °F 19.4 °F 52% 30.09 in - SE 13.8 mph - N/A   Clear
12:45 PM 35.6 °F 26.6 °F 17.6 °F 48% 30.09 in - SSE 13.8 mph - N/A   Clear
1:00 PM 35 °F - 17 °F 35% 30.13 in 19 mi SSE 13.4 mph - -   Partly Cloudy
1:15 PM 37.4 °F 28.9 °F 17.6 °F 45% 30.09 in - SSE 13.8 mph - N/A   Clear
1:45 PM 37.4 °F 28.9 °F 19.4 °F 48% 30.06 in - SSE 13.8 mph - N/A   Clear
2:15 PM 37.4 °F 28.9 °F 17.6 °F 45% 30.06 in - SSE 13.8 mph - N/A   Clear
2:45 PM 37.4 °F 28.5 °F 19.4 °F 48% 30.06 in - SE 15.0 mph - N/A   Clear
3:00 PM - - - N/A% - - SE 15.0 mph - N/A   Clear
3:15 PM 37.4 °F 28.9 °F 19.4 °F 48% 30.06 in - SSE 13.8 mph - N/A   Clear
4:15 PM 35.6 °F 25.5 °F 19.4 °F 52% 30.04 in - SE 17.3 mph - N/A   Clear
4:45 PM 35.6 °F 25.9 °F 19.4 °F 52% 30.04 in - SE 16.1 mph - N/A   Clear
5:15 PM 35.6 °F 27.1 °F 21.2 °F 56% 30.04 in - SE 12.7 mph - N/A   Clear
5:45 PM 33.8 °F 25.8 °F 21.2 °F 60% 30.04 in - SE 10.4 mph - N/A   Clear
6:15 PM 32.0 °F 24.2 °F 24.8 °F 75% 30.04 in - ESE 9.2 mph - N/A   Clear
6:45 PM 32.0 °F 24.2 °F 24.8 °F 75% 30.04 in - ESE 9.2 mph - N/A   Clear
7:00 PM 32 °F - 25 °F 65% 30.07 in 19 mi ESE 8.9 mph - -   Partly Cloudy
7:15 PM 32.0 °F 24.2 °F 24.8 °F 75% 30.04 in - ESE 9.2 mph - N/A   Clear
7:45 PM 30.2 °F 21.3 °F 24.8 °F 80% 30.01 in - East 10.4 mph - N/A   Clear
8:15 PM 30.2 °F 21.9 °F 24.8 °F 80% 30.01 in - East 9.2 mph - N/A   Clear
8:45 PM 30.2 °F 23.4 °F 24.8 °F 80% 30.01 in - East 6.9 mph - N/A   Clear
9:45 PM 30.2 °F 22.6 °F 24.8 °F 80% 29.98 in - East 8.1 mph - N/A   Clear
10:45 PM 30.2 °F 24.3 °F 24.8 °F 80% 29.98 in - East 5.8 mph - N/A   Clear
11:45 PM 30.2 °F 22.6 °F 24.8 °F 80% 29.98 in - East 8.1 mph - N/A   Clear